Location: Bernadets
(43.3537°N, 0.3167°E)
Time: 00:32:48
(UTC+00:00)

Cosmos 389 Rocket - Pass Details

Date: 24 October 2021
Orbit: 439 x 468 km, 81.1° (Epoch: 27 November)

Event Time Altitude Azimuth Distance (km) Brightness Sun altitude
Rises 17:29:37 0° 206° (SSW) 2,415 6.7 -5.8°
Reaches altitude 10° 17:31:45 10° 214° (SW) 1,553 5.8 -6.2°
Maximum altitude 17:34:56 38° 284° (WNW) 697 4.1 -6.8°
Drops below altitude 10° 17:38:10 10° 354° (N) 1,577 5.1 -7.4°
Sets 17:40:21 0° 3° (N) 2,458 6.0 -7.8°
